TimePDT,TemperatureF,Dew PointF,Humidity,Sea Level PressureIn,VisibilityMPH,Wind Direction,Wind SpeedMPH,Gust SpeedMPH,PrecipitationIn,Events,Conditions,WindDirDegrees,DateUTC
12:53 AM,39.0,21.0,49,30.05,-9999.0,SE,3.5,-,N/A,,Unknown,140,2012-10-06 07:53:00
1:53 AM,39.0,21.0,49,30.04,-9999.0,South,6.9,-,N/A,,Unknown,170,2012-10-06 08:53:00
2:53 AM,37.0,21.0,52,30.06,-9999.0,South,4.6,-,N/A,,Unknown,190,2012-10-06 09:53:00
3:53 AM,36.0,21.9,57,30.04,-9999.0,South,4.6,-,N/A,,Unknown,170,2012-10-06 10:53:00
4:53 AM,35.1,21.0,57,30.05,-9999.0,South,4.6,-,N/A,,Unknown,180,2012-10-06 11:53:00
5:53 AM,33.1,21.0,61,30.09,-9999.0,SSW,4.6,-,N/A,,Unknown,210,2012-10-06 12:53:00
6:53 AM,33.1,21.0,61,30.11,-9999.0,South,5.8,-,N/A,,Unknown,190,2012-10-06 13:53:00
7:53 AM,39.9,23.0,51,30.09,-9999.0,Calm,Calm,-,N/A,,Unknown,0,2012-10-06 14:53:00
8:53 AM,48.9,17.1,28,30.09,-9999.0,North,4.6,-,N/A,,Unknown,360,2012-10-06 15:53:00
9:53 AM,53.1,18.0,25,30.09,-9999.0,Variable,6.9,-,N/A,,Unknown,0,2012-10-06 16:53:00
10:53 AM,57.9,18.0,21,30.07,-9999.0,NE,5.8,-,N/A,,Unknown,40,2012-10-06 17:53:00
11:53 AM,62.1,19.0,19,30.05,-9999.0,NNE,10.4,-,N/A,,Unknown,20,2012-10-06 18:53:00
12:53 PM,60.1,19.9,21,30.05,-9999.0,NNE,8.1,-,N/A,,Unknown,30,2012-10-06 19:53:00
1:53 PM,61.0,21.0,21,30.03,-9999.0,SE,3.5,-,N/A,,Unknown,140,2012-10-06 20:53:00
2:53 PM,62.1,21.0,21,30.01,-9999.0,Calm,Calm,-,N/A,,Unknown,0,2012-10-06 21:53:00
3:53 PM,64.0,19.9,18,30.00,-9999.0,Calm,Calm,-,N/A,,Unknown,0,2012-10-06 22:53:00
4:53 PM,63.0,19.9,19,29.99,-9999.0,NNE,4.6,-,N/A,,Unknown,30,2012-10-06 23:53:00
5:53 PM,62.1,16.0,17,29.99,-9999.0,NNE,6.9,-,N/A,,Unknown,20,2012-10-07 00:53:00
6:53 PM,48.0,19.0,32,30.05,-9999.0,North,5.8,-,N/A,,Unknown,10,2012-10-07 01:53:00
7:53 PM,44.1,21.9,42,30.06,-9999.0,NNE,4.6,-,N/A,,Unknown,20,2012-10-07 02:53:00
8:53 PM,41.0,15.1,35,30.04,-9999.0,East,5.8,-,N/A,,Unknown,100,2012-10-07 03:53:00
9:53 PM,35.1,12.0,39,30.06,-9999.0,SSW,5.8,-,N/A,,Unknown,210,2012-10-07 04:53:00
10:53 PM,39.0,9.0,29,30.02,-9999.0,South,6.9,-,N/A,,Unknown,190,2012-10-07 05:53:00
11:53 PM,37.9,9.0,30,30.02,-9999.0,South,3.5,-,N/A,,Unknown,190,2012-10-07 06:53:00